Simultaneous Nadir Overpasses (SNOs) Predictions

Prediction of SNOs between GOES-16 and NOAA-19 Satellite Orbit:

Table of predicted SNOs for the next 14.0 days since TLE Epoch: 4/27/2024
Index Date Time (GOES-16) GOES-16 Lat,Lon NOAA-19 Lat,Lon Distance(km) Time Diff (sec)
1 04/28/2024 02:20:23 -0.04, -75.20 -0.46, -76.89 193.29 80
2 04/29/2024 02:05:28 -0.04, -75.20 0.25, -73.92 146.71 80
3 04/30/2024 01:53:14 -0.04, -75.20 0.96, -70.94 486.81 80
4 05/01/2024 14:24:53 0.03, -75.23 0.81, -78.54 378.15 80
5 05/02/2024 14:12:39 0.03, -75.23 0.10, -75.57 37.53 80
6 05/03/2024 14:03:03 0.03, -75.24 -0.57, -72.58 303.37 80
7 05/06/2024 02:22:45 -0.03, -75.25 -0.52, -77.27 230.77 80
8 05/07/2024 02:07:49 -0.03, -75.27 0.17, -74.29 110.81 80
9 05/08/2024 01:55:34 -0.02, -75.28 0.87, -71.31 452.39 80
10 05/09/2024 14:27:14 0.02, -75.32 0.87, -78.92 411.23 80
11 05/10/2024 14:14:59 0.02, -75.33 0.18, -75.94 69.54 80
